| time (UTC) | temp F | wind direction | speed MPH | gust MPH | rain 1hr in | rain 24hr in | rain mn in | humidity % | barometer mb |
| 20260507051741 | 57 | 315 | 0.0 | 0.0 | 0.00 | 0.00 | 0.00 | 98 | 1017.8 |
| 20260507051237 | 57 | 315 | 0.0 | 0.0 | 0.00 | 0.00 | 0.00 | 97 | 1017.8 |
| 20260507050734 | 57 | 315 | 0.0 | 0.0 | 0.00 | 0.00 | 0.00 | 97 | 1017.9 |
| 20260507050231 | 58 | 315 | 0.0 | 0.0 | 0.00 | 0.00 | 0.00 | 95 | 1017.9 |
| 20260507045727 | 58 | 315 | 0.0 | 0.0 | 0.00 | 0.00 | 0.00 | 95 | 1017.7 |
| 20260507045224 | 59 | 315 | 0.0 | 0.0 | 0.00 | 0.00 | 0.00 | 95 | 1017.8 |
| 20260507044721 | 59 | 315 | 0.0 | 0.0 | 0.00 | 0.00 | 0.00 | 92 | 1018.0 |
| 20260507044217 | 60 | 315 | 0.0 | 0.0 | 0.00 | 0.00 | 0.00 | 91 | 1017.9 |
| 20260507043714 | 60 | 315 | 0.0 | 0.0 | 0.00 | 0.00 | 0.00 | 91 | 1017.7 |
| 20260507043211 | 60 | 315 | 0.0 | 0.0 | 0.00 | 0.00 | 0.00 | 91 | 1017.6 |
| 20260507042707 | 60 | 315 | 0.0 | 0.0 | 0.00 | 0.00 | 0.00 | 91 | 1017.8 |
| 20260507042202 | 60 | 314 | 0.0 | 0.0 | 0.00 | 0.00 | 0.00 | 91 | 1017.7 |
| 20260507041700 | 60 | 314 | 0.0 | 1.0 | 0.00 | 0.00 | 0.00 | 90 | 1017.6 |
| 20260507041156 | 61 | 356 | 0.0 | 0.0 | 0.00 | 0.00 | 0.00 | 89 | 1017.5 |
| 20260507040653 | 61 | 15 | 0.0 | 0.0 | 0.00 | 0.00 | 0.00 | 88 | 1017.6 |
| 20260507040149 | 61 | 14 | 0.0 | 0.0 | 0.00 | 0.00 | 0.00 | 87 | 1017.5 |
| 20260507035645 | 62 | 15 | 0.0 | 0.0 | 0.00 | 0.00 | 0.00 | 86 | 1017.6 |
| 20260507035141 | 62 | 11 | 0.0 | 0.0 | 0.00 | 0.00 | 0.00 | 86 | 1017.4 |
| 20260507034638 | 62 | 15 | 0.0 | 1.0 | 0.00 | 0.00 | 0.00 | 85 | 1017.4 |
| 20260507034136 | 62 | 293 | 0.0 | 0.0 | 0.00 | 0.00 | 0.00 | 84 | 1017.3 |
| 20260507033634 | 62 | 306 | 1.0 | 1.0 | 0.00 | 0.00 | 0.00 | 83 | 1017.2 |
| 20260507033131 | 62 | 276 | 2.0 | 2.0 | 0.00 | 0.00 | 0.00 | 82 | 1017.3 |
| 20260507032629 | 62 | 310 | 0.0 | 0.0 | 0.00 | 0.00 | 0.00 | 80 | 1017.3 |
| 20260507032124 | 63 | 310 | 0.0 | 0.0 | 0.00 | 0.00 | 0.00 | 79 | 1017.2 |
| 20260507031621 | 63 | 306 | 0.0 | 1.0 | 0.00 | 0.00 | 0.00 | 79 | 1017.1 |
| 20260507031118 | 63 | 318 | 1.0 | 1.0 | 0.00 | 0.00 | 0.00 | 77 | 1017.1 |
| 20260507030615 | 64 | 355 | 0.0 | 0.0 | 0.00 | 0.00 | 0.00 | 76 | 1017.0 |
| 20260507030113 | 64 | 311 | 0.0 | 2.0 | 0.00 | 0.00 | 0.00 | 76 | 1017.0 |
| 20260507025609 | 64 | 270 | 1.0 | 1.0 | 0.00 | 0.00 | 0.00 | 75 | 1016.9 |
| 20260507025106 | 64 | 321 | 0.0 | 1.0 | 0.00 | 0.00 | 0.00 | 73 | 1017.1 |
| 20260507024604 | 64 | 322 | 0.0 | 1.0 | 0.00 | 0.00 | 0.00 | 70 | 1016.9 |
| 20260507024101 | 64 | 308 | 1.0 | 1.0 | 0.00 | 0.00 | 0.00 | 70 | 1016.6 |
| 20260507023556 | 65 | 275 | 1.0 | 2.0 | 0.00 | 0.00 | 0.00 | 70 | 1016.7 |
| 20260507023054 | 65 | 302 | 0.0 | 1.0 | 0.00 | 0.00 | 0.00 | 72 | 1016.6 |
| 20260507022551 | 65 | 297 | 1.0 | 1.0 | 0.00 | 0.00 | 0.00 | 71 | 1016.7 |
| 20260507022046 | 66 | 335 | 0.0 | 2.0 | 0.00 | 0.00 | 0.00 | 70 | 1016.8 |
| 20260507021543 | 66 | 268 | 0.0 | 2.0 | 0.00 | 0.00 | 0.00 | 69 | 1016.4 |
| 20260507021039 | 66 | 290 | 0.0 | 2.0 | 0.00 | 0.00 | 0.00 | 69 | 1016.7 |
| 20260507020537 | 67 | 298 | 1.0 | 2.0 | 0.00 | 0.00 | 0.00 | 69 | 1016.7 |
| 20260507020033 | 67 | 265 | 0.0 | 2.0 | 0.00 | 0.00 | 0.00 | 69 | 1016.6 |
| 20260507015532 | 68 | 342 | 0.0 | 1.0 | 0.00 | 0.00 | 0.00 | 68 | 1016.5 |
| 20260507015029 | 68 | 328 | 1.0 | 1.0 | 0.00 | 0.00 | 0.00 | 67 | 1016.7 |
| 20260507014525 | 69 | 14 | 1.0 | 3.0 | 0.00 | 0.00 | 0.00 | 67 | 1016.3 |
| 20260507014021 | 69 | 324 | 3.0 | 3.0 | 0.00 | 0.00 | 0.00 | 65 | 1016.4 |
| 20260507013518 | 71 | 200 | 0.0 | 3.0 | 0.00 | 0.00 | 0.00 | 63 | 1016.4 |
| 20260507013015 | 72 | 308 | 1.0 | 2.0 | 0.00 | 0.00 | 0.00 | 61 | 1016.3 |
| 20260507012512 | 73 | 247 | 0.0 | 2.0 | 0.00 | 0.00 | 0.00 | 60 | 1016.5 |
| 20260507012008 | 74 | 282 | 1.0 | 3.0 | 0.00 | 0.00 | 0.00 | 59 | 1016.3 |
| 20260507011506 | 73 | 294 | 0.0 | 1.0 | 0.00 | 0.00 | 0.00 | 60 | 1016.5 |
| 20260507011001 | 73 | 329 | 2.0 | 3.0 | 0.00 | 0.00 | 0.00 | 60 | 1016.4 |
| 20260507010456 | 73 | 293 | 1.0 | 3.0 | 0.00 | 0.00 | 0.00 | 59 | 1016.5 |
| 20260507005953 | 74 | 266 | 1.0 | 6.0 | 0.00 | 0.00 | 0.00 | 58 | 1016.5 |
| 20260507005451 | 74 | 295 | 1.0 | 2.0 | 0.00 | 0.00 | 0.00 | 58 | 1016.4 |
| 20260507004947 | 74 | 293 | 1.0 | 1.0 | 0.00 | 0.00 | 0.00 | 59 | 1016.2 |
| 20260507004443 | 74 | 272 | 2.0 | 2.0 | 0.00 | 0.00 | 0.00 | 58 | 1016.3 |
| 20260507003941 | 73 | 254 | 1.0 | 2.0 | 0.00 | 0.00 | 0.00 | 59 | 1016.3 |
| 20260507003436 | 74 | 190 | 1.0 | 3.0 | 0.00 | 0.00 | 0.00 | 57 | 1016.2 |
| 20260507002931 | 74 | 322 | 2.0 | 4.0 | 0.00 | 0.00 | 0.00 | 57 | 1016.2 |
| 20260507002428 | 74 | 290 | 1.0 | 2.0 | 0.00 | 0.00 | 0.00 | 59 | 1016.3 |
| 20260507001925 | 75 | 285 | 3.0 | 4.0 | 0.00 | 0.00 | 0.00 | 57 | 1016.3 |
| 20260507001422 | 74 | 265 | 2.0 | 2.0 | 0.00 | 0.00 | 0.00 | 57 | 1016.1 |
| 20260507000920 | 75 | 167 | 1.0 | 4.0 | 0.00 | 0.00 | 0.00 | 57 | 1016.2 |
| 20260507000415 | 75 | 85 | 1.0 | 2.0 | 0.00 | 0.00 | 0.00 | 59 | 1016.2 |
| 20260506235910 | 76 | 288 | 0.0 | 2.0 | 0.00 | 0.00 | 0.00 | 55 | 1016.1 |
| 20260506235408 | 76 | 309 | 0.0 | 3.0 | 0.00 | 0.00 | 0.00 | 56 | 1016.1 |
| 20260506234903 | 75 | 240 | 1.0 | 2.0 | 0.00 | 0.00 | 0.00 | 57 | 1016.1 |
| 20260506234402 | 75 | 242 | 1.0 | 3.0 | 0.00 | 0.00 | 0.00 | 56 | 1016.0 |
| 20260506233859 | 75 | 199 | 1.0 | 3.0 | 0.00 | 0.00 | 0.00 | 56 | 1016.1 |
| 20260506233355 | 75 | 230 | 4.0 | 3.0 | 0.00 | 0.00 | 0.00 | 57 | 1016.1 |
| 20260506232852 | 76 | 170 | 2.0 | 3.0 | 0.00 | 0.00 | 0.00 | 57 | 1015.9 |
| 20260506232348 | 77 | 284 | 2.0 | 7.0 | 0.00 | 0.00 | 0.00 | 55 | 1016.1 |
| 20260506231844 | 77 | 322 | 3.0 | 3.0 | 0.00 | 0.00 | 0.00 | 55 | 1016.1 |
| 20260506231342 | 77 | 224 | 1.0 | 2.0 | 0.00 | 0.00 | 0.00 | 55 | 1016.1 |
| 20260506230839 | 77 | 277 | 3.0 | 4.0 | 0.00 | 0.00 | 0.00 | 56 | 1016.0 |
| 20260506230336 | 77 | 349 | 2.0 | 2.0 | 0.00 | 0.00 | 0.00 | 55 | 1016.1 |
| 20260506225832 | 77 | 299 | 1.0 | 3.0 | 0.00 | 0.00 | 0.00 | 57 | 1015.9 |
| 20260506225330 | 78 | 265 | 2.0 | 4.0 | 0.00 | 0.00 | 0.00 | 55 | 1016.2 |
| 20260506224826 | 77 | 299 | 0.0 | 3.0 | 0.00 | 0.00 | 0.00 | 55 | 1016.4 |
| 20260506224323 | 77 | 193 | 1.0 | 2.0 | 0.00 | 0.00 | 0.00 | 56 | 1016.0 |
| 20260506223820 | 77 | 256 | 2.0 | 3.0 | 0.00 | 0.00 | 0.00 | 57 | 1016.2 |
| 20260506223315 | 77 | 280 | 1.0 | 6.0 | 0.00 | 0.00 | 0.00 | 57 | 1016.1 |
| 20260506222813 | 77 | 304 | 1.0 | 3.0 | 0.00 | 0.00 | 0.00 | 57 | 1016.2 |
| 20260506222308 | 77 | 206 | 1.0 | 1.0 | 0.00 | 0.00 | 0.00 | 56 | 1016.2 |
| 20260506221807 | 78 | 318 | 3.0 | 3.0 | 0.00 | 0.00 | 0.00 | 56 | 1016.4 |
| 20260506221304 | 78 | 292 | 1.0 | 1.0 | 0.00 | 0.00 | 0.00 | 57 | 1016.5 |
| 20260506220802 | 78 | 318 | 1.0 | 2.0 | 0.00 | 0.00 | 0.00 | 56 | 1016.4 |
| 20260506220301 | 78 | 311 | 2.0 | 2.0 | 0.00 | 0.00 | 0.00 | 55 | 1016.5 |
| 20260506215758 | 77 | 282 | 1.0 | 3.0 | 0.00 | 0.00 | 0.00 | 56 | 1016.6 |
| 20260506215254 | 77 | 244 | 2.0 | 3.0 | 0.00 | 0.00 | 0.00 | 58 | 1016.7 |
| 20260506214750 | 78 | 241 | 2.0 | 4.0 | 0.00 | 0.00 | 0.00 | 56 | 1016.6 |
| 20260506214247 | 78 | 348 | 3.0 | 4.0 | 0.00 | 0.00 | 0.00 | 56 | 1016.5 |
| 20260506213746 | 77 | 215 | 2.0 | 2.0 | 0.00 | 0.00 | 0.00 | 57 | 1016.8 |
| 20260506213242 | 77 | 140 | 2.0 | 3.0 | 0.00 | 0.00 | 0.00 | 56 | 1016.9 |
| 20260506212740 | 77 | 178 | 2.0 | 2.0 | 0.00 | 0.00 | 0.00 | 55 | 1016.7 |
| 20260506212236 | 76 | 316 | 1.0 | 2.0 | 0.00 | 0.00 | 0.00 | 59 | 1016.9 |
| 20260506211731 | 77 | 23 | 2.0 | 4.0 | 0.00 | 0.00 | 0.00 | 58 | 1016.8 |
| 20260506211227 | 77 | 228 | 5.0 | 7.0 | 0.00 | 0.00 | 0.00 | 56 | 1016.9 |
| 20260506210725 | 77 | 180 | 2.0 | 6.0 | 0.00 | 0.00 | 0.00 | 57 | 1016.7 |
| 20260506210221 | 78 | 226 | 4.0 | 4.0 | 0.00 | 0.00 | 0.00 | 55 | 1016.8 |
| 20260506205719 | 78 | 264 | 2.0 | 3.0 | 0.00 | 0.00 | 0.00 | 56 | 1016.9 |
| 20260506205214 | 78 | 326 | 2.0 | 3.0 | 0.00 | 0.00 | 0.00 | 56 | 1017.0 |
| 20260506204711 | 77 | 286 | 1.0 | 3.0 | 0.00 | 0.00 | 0.00 | 56 | 1016.8 |
| 20260506204208 | 77 | 269 | 2.0 | 4.0 | 0.00 | 0.00 | 0.00 | 56 | 1016.8 |
| 20260506203706 | 77 | 284 | 2.0 | 6.0 | 0.00 | 0.00 | 0.00 | 57 | 1016.9 |
| 20260506203203 | 78 | 305 | 3.0 | 4.0 | 0.00 | 0.00 | 0.00 | 56 | 1016.9 |
| 20260506202701 | 78 | 299 | 1.0 | 4.0 | 0.00 | 0.00 | 0.00 | 56 | 1016.9 |
| 20260506202156 | 78 | 254 | 2.0 | 3.0 | 0.00 | 0.00 | 0.00 | 55 | 1017.0 |
| 20260506201654 | 79 | 262 | 3.0 | 4.0 | 0.00 | 0.00 | 0.00 | 53 | 1016.9 |
| 20260506201150 | 79 | 216 | 2.0 | 4.0 | 0.00 | 0.00 | 0.00 | 53 | 1017.1 |
| 20260506200647 | 78 | 219 | 3.0 | 4.0 | 0.00 | 0.00 | 0.00 | 54 | 1016.9 |
| 20260506200144 | 79 | 310 | 2.0 | 3.0 | 0.00 | 0.00 | 0.00 | 55 | 1017.1 |
| 20260506195640 | 79 | 328 | 1.0 | 7.0 | 0.00 | 0.00 | 0.00 | 53 | 1016.9 |
| 20260506195137 | 80 | 241 | 2.0 | 2.0 | 0.00 | 0.00 | 0.00 | 52 | 1017.2 |
| 20260506194634 | 80 | 283 | 1.0 | 2.0 | 0.00 | 0.00 | 0.00 | 52 | 1017.2 |
| 20260506194130 | 79 | 262 | 2.0 | 3.0 | 0.00 | 0.00 | 0.00 | 52 | 1017.2 |
| 20260506193628 | 80 | 320 | 1.0 | 3.0 | 0.00 | 0.00 | 0.00 | 51 | 1017.1 |
| 20260506193125 | 81 | 287 | 1.0 | 2.0 | 0.00 | 0.00 | 0.00 | 51 | 1017.2 |
| 20260506192622 | 81 | 283 | 1.0 | 1.0 | 0.00 | 0.00 | 0.00 | 48 | 1017.3 |
| 20260506192118 | 80 | 263 | 3.0 | 3.0 | 0.00 | 0.00 | 0.00 | 49 | 1017.4 |
| 20260506191615 | 81 | 296 | 1.0 | 1.0 | 0.00 | 0.00 | 0.00 | 51 | 1017.5 |
| 20260506191111 | 79 | 7 | 1.0 | 1.0 | 0.00 | 0.00 | 0.00 | 52 | 1017.6 |
| 20260506190609 | 80 | 154 | 2.0 | 3.0 | 0.00 | 0.00 | 0.00 | 49 | 1017.5 |
| 20260506190105 | 80 | 235 | 1.0 | 2.0 | 0.00 | 0.00 | 0.00 | 51 | 1017.4 |
| 20260506185602 | 80 | 302 | 2.0 | 4.0 | 0.00 | 0.00 | 0.00 | 48 | 1017.6 |
| 20260506185058 | 79 | 281 | 1.0 | 2.0 | 0.00 | 0.00 | 0.00 | 49 | 1017.6 |
| 20260506184556 | 79 | 78 | 1.0 | 2.0 | 0.00 | 0.00 | 0.00 | 48 | 1017.6 |
| 20260506184053 | 79 | 258 | 0.0 | 1.0 | 0.00 | 0.00 | 0.00 | 52 | 1017.6 |
| 20260506183549 | 78 | 298 | 2.0 | 3.0 | 0.00 | 0.00 | 0.00 | 50 | 1017.8 |
| 20260506183046 | 78 | 236 | 1.0 | 1.0 | 0.00 | 0.00 | 0.00 | 53 | 1018.0 |
| 20260506182543 | 78 | 218 | 1.0 | 2.0 | 0.00 | 0.00 | 0.00 | 51 | 1018.0 |
| 20260506182040 | 77 | 358 | 1.0 | 2.0 | 0.00 | 0.00 | 0.00 | 52 | 1018.2 |
| 20260506181538 | 78 | 9 | 1.0 | 3.0 | 0.00 | 0.00 | 0.00 | 52 | 1018.0 |
| 20260506181035 | 77 | 302 | 0.0 | 2.0 | 0.00 | 0.00 | 0.00 | 50 | 1018.1 |
| 20260506180531 | 75 | 296 | 1.0 | 6.0 | 0.00 | 0.00 | 0.00 | 54 | 1018.2 |
| 20260506180028 | 76 | 45 | 0.0 | 1.0 | 0.00 | 0.00 | 0.00 | 52 | 1018.2 |
| 20260506175525 | 77 | 299 | 1.0 | 1.0 | 0.00 | 0.00 | 0.00 | 52 | 1018.2 |
| 20260506175021 | 77 | 296 | 2.0 | 3.0 | 0.00 | 0.00 | 0.00 | 52 | 1018.2 |
| 20260506174520 | 76 | 272 | 0.0 | 1.0 | 0.00 | 0.00 | 0.00 | 54 | 1018.1 |
| 20260506174015 | 75 | 16 | 0.0 | 2.0 | 0.00 | 0.00 | 0.00 | 54 | 1018.3 |
| 20260506173513 | 75 | 226 | 0.0 | 3.0 | 0.00 | 0.00 | 0.00 | 53 | 1018.3 |
| 20260506173010 | 74 | 185 | 1.0 | 2.0 | 0.00 | 0.00 | 0.00 | 55 | 1018.3 |
| 20260506172508 | 73 | 17 | 1.0 | 1.0 | 0.00 | 0.00 | 0.00 | 56 | 1018.5 |
| 20260506172003 | 75 | 77 | 1.0 | 3.0 | 0.00 | 0.00 | 0.00 | 54 | 1018.6 |
| 20260506171501 | 74 | 211 | 1.0 | 1.0 | 0.00 | 0.00 | 0.00 | 57 | 1018.7 |
| 20260506170959 | 73 | 260 | 1.0 | 3.0 | 0.00 | 0.00 | 0.00 | 58 | 1018.4 |
| 20260506170455 | 73 | 56 | 2.0 | 3.0 | 0.00 | 0.00 | 0.00 | 59 | 1018.5 |
| 20260506165953 | 73 | 35 | 0.0 | 1.0 | 0.00 | 0.00 | 0.00 | 56 | 1018.5 |
| 20260506165452 | 72 | 30 | 1.0 | 1.0 | 0.00 | 0.00 | 0.00 | 58 | 1018.5 |
| 20260506164947 | 72 | 6 | 0.0 | 1.0 | 0.00 | 0.00 | 0.00 | 57 | 1018.4 |
| 20260506164444 | 72 | 223 | 0.0 | 1.0 | 0.00 | 0.00 | 0.00 | 61 | 1018.6 |
| 20260506163942 | 71 | 258 | 1.0 | 2.0 | 0.00 | 0.00 | 0.00 | 61 | 1018.5 |
| 20260506163437 | 71 | 16 | 0.0 | 1.0 | 0.00 | 0.00 | 0.00 | 62 | 1018.5 |
| 20260506162932 | 71 | 5 | 0.0 | 1.0 | 0.00 | 0.00 | 0.00 | 60 | 1018.7 |
| 20260506162430 | 70 | 25 | 1.0 | 2.0 | 0.00 | 0.00 | 0.00 | 61 | 1018.6 |
| 20260506161927 | 71 | 45 | 0.0 | 1.0 | 0.00 | 0.00 | 0.00 | 60 | 1018.6 |
| 20260506161425 | 70 | 200 | 0.0 | 1.0 | 0.00 | 0.00 | 0.00 | 64 | 1018.5 |
| 20260506160922 | 69 | 307 | 1.0 | 1.0 | 0.00 | 0.00 | 0.00 | 65 | 1018.5 |
| 20260506160420 | 69 | 43 | 1.0 | 1.0 | 0.00 | 0.00 | 0.00 | 63 | 1018.6 |
| 20260506155917 | 69 | 311 | 2.0 | 2.0 | 0.00 | 0.00 | 0.00 | 64 | 1018.7 |
| 20260506155414 | 69 | 46 | 1.0 | 1.0 | 0.00 | 0.00 | 0.00 | 64 | 1018.7 |
| 20260506153531 | 69 | 57 | 1.0 | 1.0 | 0.00 | 0.00 | 0.00 | 62 | 1018.7 |
| 20260506153028 | 69 | 74 | 0.0 | 1.0 | 0.00 | 0.00 | 0.00 | 63 | 1018.7 |
| 20260506152525 | 70 | 32 | 0.0 | 1.0 | 0.00 | 0.00 | 0.00 | 63 | 1018.7 |
| 20260506152023 | 68 | 32 | 0.0 | 1.0 | 0.00 | 0.00 | 0.00 | 65 | 1018.6 |
| 20260506151520 | 67 | 31 | 0.0 | 0.0 | 0.00 | 0.00 | 0.00 | 68 | 1018.8 |
| 20260506151018 | 66 | 32 | 0.0 | 1.0 | 0.00 | 0.00 | 0.00 | 71 | 1018.9 |
| 20260506150513 | 65 | 46 | 0.0 | 1.0 | 0.00 | 0.00 | 0.00 | 70 | 1018.6 |
| 20260506150011 | 64 | 36 | 0.0 | 1.0 | 0.00 | 0.00 | 0.00 | 72 | 1018.8 |
| 20260506145507 | 62 | 26 | 0.0 | 1.0 | 0.00 | 0.00 | 0.00 | 77 | 1018.9 |
| 20260506145005 | 60 | 26 | 0.0 | 2.0 | 0.00 | 0.00 | 0.00 | 79 | 1018.9 |
| 20260506144502 | 59 | 38 | 0.0 | 1.0 | 0.00 | 0.00 | 0.00 | 83 | 1018.8 |
| 20260506143959 | 58 | 39 | 0.0 | 1.0 | 0.00 | 0.00 | 0.00 | 85 | 1018.7 |
| 20260506143456 | 57 | 40 | 0.0 | 0.0 | 0.00 | 0.00 | 0.00 | 87 | 1018.7 |
| 20260506142955 | 56 | 35 | 1.0 | 1.0 | 0.00 | 0.00 | 0.00 | 88 | 1018.6 |
| 20260506142452 | 56 | 44 | 2.0 | 2.0 | 0.00 | 0.00 | 0.00 | 88 | 1018.8 |
| 20260506141950 | 55 | 30 | 1.0 | 1.0 | 0.00 | 0.00 | 0.00 | 90 | 1018.8 |
| 20260506141448 | 55 | 33 | 1.0 | 2.0 | 0.00 | 0.00 | 0.00 | 91 | 1018.8 |
| 20260506140946 | 54 | 38 | 0.0 | 1.0 | 0.00 | 0.00 | 0.00 | 92 | 1018.7 |
| 20260506140443 | 54 | 61 | 0.0 | 1.0 | 0.00 | 0.00 | 0.00 | 92 | 1018.8 |
| 20260506135939 | 54 | 320 | 0.0 | 0.0 | 0.00 | 0.00 | 0.00 | 92 | 1018.7 |
| 20260506135437 | 54 | 320 | 1.0 | 1.0 | 0.00 | 0.00 | 0.00 | 94 | 1018.7 |
| 20260506134932 | 53 | 319 | 1.0 | 1.0 | 0.00 | 0.00 | 0.00 | 95 | 1018.8 |
| 20260506134429 | 53 | 314 | 0.0 | 0.0 | 0.00 | 0.00 | 0.00 | 97 | 1018.6 |
| 20260506133926 | 52 | 314 | 0.0 | 0.0 | 0.00 | 0.00 | 0.00 | 99 | 1018.5 |
| 20260506133423 | 51 | 314 | 0.0 | 0.0 | 0.00 | 0.00 | 0.00 | 99 | 1018.5 |
| 20260506132920 | 51 | 314 | 0.0 | 0.0 | 0.00 | 0.00 | 0.00 | 99 | 1018.5 |
| 20260506132417 | 51 | 314 | 0.0 | 0.0 | 0.00 | 0.00 | 0.00 | 99 | 1018.2 |
| 20260506131914 | 51 | 314 | 0.0 | 0.0 | 0.00 | 0.00 | 0.00 | 98 | 1018.2 |
| 20260506131410 | 52 | 314 | 0.0 | 0.0 | 0.00 | 0.00 | 0.00 | 98 | 1018.2 |
| 20260506130908 | 52 | 314 | 0.0 | 0.0 | 0.00 | 0.00 | 0.00 | 98 | 1018.3 |
| 20260506130404 | 52 | 314 | 0.0 | 0.0 | 0.00 | 0.00 | 0.00 | 99 | 1018.2 |
| 20260506125902 | 51 | 314 | 0.0 | 0.0 | 0.00 | 0.00 | 0.00 | 99 | 1018.1 |
| 20260506125400 | 51 | 314 | 0.0 | 0.0 | 0.00 | 0.00 | 0.00 | 99 | 1018.1 |
| 20260506124858 | 51 | 314 | 0.0 | 0.0 | 0.00 | 0.00 | 0.00 | 99 | 1018.1 |
| 20260506124355 | 51 | 314 | 0.0 | 0.0 | 0.00 | 0.00 | 0.00 | 99 | 1018.1 |
| 20260506123853 | 51 | 314 | 0.0 | 0.0 | 0.00 | 0.00 | 0.00 | 99 | 1017.9 |
| 20260506123351 | 51 | 314 | 0.0 | 0.0 | 0.00 | 0.00 | 0.00 | 99 | 1018.0 |
| 20260506122848 | 51 | 314 | 0.0 | 0.0 | 0.00 | 0.00 | 0.00 | 99 | 1018.0 |
| 20260506122344 | 51 | 314 | 0.0 | 0.0 | 0.00 | 0.00 | 0.00 | 99 | 1017.9 |
| 20260506121843 | 51 | 314 | 0.0 | 0.0 | 0.00 | 0.00 | 0.00 | 98 | 1018.0 |
| 20260506121340 | 51 | 314 | 0.0 | 0.0 | 0.00 | 0.00 | 0.00 | 99 | 1017.8 |
| 20260506120837 | 51 | 314 | 0.0 | 0.0 | 0.00 | 0.00 | 0.00 | 99 | 1017.9 |
| 20260506120334 | 51 | 314 | 0.0 | 0.0 | 0.00 | 0.00 | 0.00 | 99 | 1017.7 |
| 20260506115831 | 51 | 313 | 0.0 | 0.0 | 0.00 | 0.00 | 0.00 | 99 | 1017.6 |
| 20260506115330 | 51 | 313 | 0.0 | 0.0 | 0.00 | 0.00 | 0.00 | 99 | 1017.7 |
| 20260506114827 | 51 | 313 | 0.0 | 0.0 | 0.00 | 0.00 | 0.00 | 99 | 1017.7 |
| 20260506114325 | 51 | 313 | 0.0 | 0.0 | 0.00 | 0.00 | 0.00 | 99 | 1017.7 |
| 20260506113823 | 51 | 313 | 0.0 | 0.0 | 0.00 | 0.00 | 0.00 | 99 | 1017.6 |
| 20260506113320 | 51 | 313 | 0.0 | 0.0 | 0.00 | 0.00 | 0.00 | 98 | 1017.7 |
| 20260506112817 | 52 | 313 | 0.0 | 0.0 | 0.00 | 0.00 | 0.00 | 98 | 1017.9 |
| 20260506112314 | 52 | 313 | 0.0 | 0.0 | 0.00 | 0.00 | 0.00 | 97 | 1018.1 |
| 20260506111812 | 53 | 313 | 0.0 | 0.0 | 0.00 | 0.00 | 0.00 | 96 | 1017.9 |
| 20260506111309 | 53 | 313 | 0.0 | 0.0 | 0.00 | 0.00 | 0.00 | 95 | 1017.8 |
| 20260506110807 | 53 | 313 | 0.0 | 0.0 | 0.00 | 0.00 | 0.00 | 95 | 1017.9 |
| 20260506110304 | 53 | 313 | 0.0 | 0.0 | 0.00 | 0.00 | 0.00 | 95 | 1017.6 |
| 20260506105800 | 53 | 313 | 0.0 | 0.0 | 0.00 | 0.00 | 0.00 | 95 | 1017.8 |
| 20260506105257 | 53 | 313 | 0.0 | 0.0 | 0.00 | 0.00 | 0.00 | 95 | 1017.7 |
| 20260506104755 | 53 | 313 | 0.0 | 0.0 | 0.00 | 0.00 | 0.00 | 95 | 1017.8 |
| 20260506104252 | 53 | 313 | 0.0 | 0.0 | 0.00 | 0.00 | 0.00 | 96 | 1017.9 |
| 20260506103749 | 53 | 313 | 0.0 | 0.0 | 0.00 | 0.00 | 0.00 | 96 | 1017.9 |
| 20260506103247 | 53 | 313 | 0.0 | 0.0 | 0.00 | 0.00 | 0.00 | 96 | 1017.9 |
| 20260506102744 | 53 | 313 | 0.0 | 0.0 | 0.00 | 0.00 | 0.00 | 97 | 1017.6 |
| 20260506102242 | 53 | 306 | 0.0 | 0.0 | 0.00 | 0.00 | 0.00 | 97 | 1017.7 |
| 20260506101739 | 52 | 306 | 0.0 | 0.0 | 0.00 | 0.00 | 0.00 | 98 | 1017.8 |
| 20260506101235 | 52 | 305 | 0.0 | 0.0 | 0.00 | 0.00 | 0.00 | 99 | 1017.5 |
| 20260506100733 | 52 | 305 | 0.0 | 0.0 | 0.00 | 0.00 | 0.00 | 99 | 1017.3 |
| 20260506100231 | 51 | 305 | 0.0 | 0.0 | 0.00 | 0.00 | 0.00 | 99 | 1017.5 |
| 20260506095730 | 51 | 298 | 0.0 | 0.0 | 0.00 | 0.00 | 0.00 | 99 | 1017.5 |
| 20260506095226 | 50 | 298 | 0.0 | 0.0 | 0.00 | 0.00 | 0.00 | 99 | 1017.5 |
| 20260506094723 | 50 | 298 | 0.0 | 0.0 | 0.00 | 0.00 | 0.00 | 99 | 1017.4 |
| 20260506094221 | 50 | 298 | 0.0 | 0.0 | 0.00 | 0.00 | 0.00 | 99 | 1017.5 |
| 20260506093720 | 50 | 298 | 0.0 | 0.0 | 0.00 | 0.00 | 0.00 | 99 | 1017.6 |
| 20260506093216 | 50 | 298 | 0.0 | 0.0 | 0.00 | 0.00 | 0.00 | 99 | 1017.4 |
| 20260506092714 | 50 | 298 | 0.0 | 0.0 | 0.00 | 0.00 | 0.00 | 99 | 1017.5 |
| 20260506092211 | 50 | 298 | 0.0 | 0.0 | 0.00 | 0.00 | 0.00 | 99 | 1017.4 |
| 20260506091709 | 50 | 298 | 0.0 | 0.0 | 0.00 | 0.00 | 0.00 | 99 | 1017.5 |
| 20260506091206 | 50 | 298 | 0.0 | 0.0 | 0.00 | 0.00 | 0.00 | 99 | 1017.7 |
| 20260506090704 | 51 | 298 | 0.0 | 0.0 | 0.00 | 0.00 | 0.00 | 99 | 1017.7 |
| 20260506090200 | 51 | 298 | 0.0 | 0.0 | 0.00 | 0.00 | 0.00 | 99 | 1017.6 |
| 20260506085657 | 51 | 298 | 0.0 | 0.0 | 0.00 | 0.00 | 0.00 | 99 | 1017.6 |
| 20260506085153 | 51 | 298 | 0.0 | 0.0 | 0.00 | 0.00 | 0.00 | 99 | 1017.9 |
| 20260506084650 | 51 | 298 | 0.0 | 0.0 | 0.00 | 0.00 | 0.00 | 99 | 1018.0 |
| 20260506084147 | 51 | 298 | 0.0 | 0.0 | 0.00 | 0.00 | 0.00 | 99 | 1018.1 |
| 20260506083644 | 51 | 298 | 0.0 | 0.0 | 0.00 | 0.00 | 0.00 | 99 | 1018.0 |
| 20260506083142 | 51 | 298 | 0.0 | 0.0 | 0.00 | 0.00 | 0.00 | 99 | 1018.0 |
| 20260506082638 | 51 | 298 | 0.0 | 0.0 | 0.00 | 0.00 | 0.00 | 99 | 1018.3 |
| 20260506082133 | 51 | 298 | 0.0 | 0.0 | 0.00 | 0.00 | 0.00 | 99 | 1018.2 |
| 20260506081632 | 51 | 298 | 0.0 | 0.0 | 0.00 | 0.00 | 0.00 | 99 | 1018.1 |
| 20260506081129 | 51 | 298 | 0.0 | 0.0 | 0.00 | 0.00 | 0.00 | 99 | 1018.2 |
| 20260506080627 | 51 | 297 | 0.0 | 0.0 | 0.00 | 0.00 | 0.00 | 99 | 1018.3 |
| 20260506080123 | 51 | 297 | 0.0 | 0.0 | 0.00 | 0.00 | 0.00 | 99 | 1018.3 |
| 20260506073107 | 52 | 295 | 0.0 | 0.0 | 0.00 | 0.00 | 0.00 | 98 | 1018.4 |
| 20260506072604 | 52 | 295 | 0.0 | 0.0 | 0.00 | 0.00 | 0.00 | 97 | 1018.5 |
| 20260506072102 | 52 | 295 | 0.0 | 0.0 | 0.00 | 0.00 | 0.00 | 97 | 1018.5 |
| 20260506071559 | 52 | 295 | 0.0 | 0.0 | 0.00 | 0.00 | 0.00 | 97 | 1018.3 |
| 20260506071057 | 52 | 295 | 0.0 | 0.0 | 0.00 | 0.00 | 0.00 | 96 | 1018.3 |
| 20260506070554 | 53 | 295 | 0.0 | 0.0 | 0.00 | 0.00 | 0.00 | 96 | 1018.3 |
| 20260506062033 | 53 | 294 | 0.0 | 0.0 | 0.00 | 0.29 | 0.29 | 95 | 1018.0 |
| 20260506061529 | 53 | 294 | 0.0 | 0.0 | 0.00 | 0.29 | 0.29 | 95 | 1018.1 |
| 20260506061027 | 53 | 294 | 0.0 | 0.0 | 0.00 | 0.29 | 0.29 | 94 | 1018.0 |
| 20260506060525 | 53 | 294 | 0.0 | 0.0 | 0.00 | 0.29 | 0.29 | 95 | 1018.0 |